STARLINK-5919 (55927 NORAD) Tracking and Keplerian Element Data

This shows tracking and keplerian element data for the satellite.

Feedback or suggestion? Click here.




ElementValue
Catalog55927
NameSTARLINK-5919
Epoch Orbit840
Epoch Day127.25001157
Epoch Year2023
RAAN41.2118
Inclination70.0016
Eccentricity0.000322
Argument of Perigee276.6103
Mean Anonmoly75.8388
Mean Motion15.30987393
Decay Rate-0.00923084
L11 55927U 23037P 23127.25001157 -.00923084 00000+0 -33566-1 0 9990
L22 55927 70.0016 41.2118 0003220 276.6103 75.8388 15.30987393 8402



Live tracking and technical data element details for STARLINK-5919 (NORAD 55927). STARLINK-5919 can be tracked NOW for your location showing map with azimuth and elevation plus other details from your city location.







IsCatalogInMostPopularTable: catalog: 55927, numindb: 8
Update: records affected: 1



GetName: 55927 STARLINK-5919

Hit Count: updated at: Tue, 06 Jun 2023 03:01:52 GMT